Vorticity
12 9 2 0 1 1 4 7 7 4 -2 -3 -2 -1 2 2 6 11 9 5 3 1 3 1 -3 -4 -2 -1 -0 -0 1 2 2 1 1 3 7 9 9 9 10 10 11 12 11 10 7 3 1 -1 -0 0 1 1 2 3 3 3 3 3 3 4 4 4 5 5 5 4 4 3 3 3 3 3 2 3 3 4 3 4 5 5 5 4 4 4 4 4 4 4 4 3 3 3 2 3 4
8 12 6 3 1 -4 -1 6 9 10 7 4 1 -2 2 2 -1 4 7 5 5 3 -2 -8 -12 -9 -3 -0 1 2 2 3 2 2 4 7 8 7 7 7 8 8 8 7 4 1 -3 -4 -4 -3 -1 1 3 3 4 5 5 6 6 6 5 5 4 5 5 5 5 5 6 6 6 5 5 4 4 3 3 3 3 3 3 4 4 4 4 4 4 4 5 5 4 5 4 4 3 3 3
4 9 9 5 8 3 -2 1 6 8 6 4 5 2 3 6 -1 -4 -0 -1 -3 -6 -11 -13 -8 -3 -1 0 -0 0 2 4 6 7 9 8 6 6 7 7 8 6 3 -2 -5 -6 -5 -3 -1 1 1 2 3 5 6 6 6 6 6 7 7 6 5 6 5 5 5 6 6 6 7 7 6 6 5 5 4 3 3 3 3 3 3 4 4 3 3 3 4 4 5 6 5 5 4 4 4
0 8 8 4 8 10 4 -1 -2 -2 0 1 2 3 3 6 6 3 -1 -3 -5 -5 -3 0 6 9 7 5 4 5 8 9 9 9 8 7 7 8 8 7 3 -3 -7 -8 -6 -3 -0 1 2 2 1 2 3 5 7 7 6 6 5 5 6 6 5 5 6 5 5 5 5 6 6 7 7 7 6 6 5 4 3 3 3 3 3 3 4 3 3 3 3 3 3 4 6 6 5 5 4
4 10 9 5 6 8 9 4 -2 -4 1 2 0 2 6 7 7 7 7 11 13 12 14 15 16 20 20 16 13 11 10 7 6 6 6 9 9 8 5 -0 -7 -10 -8 -5 -1 1 3 4 3 2 3 3 5 6 7 8 7 7 6 5 5 5 5 5 6 5 6 5 5 5 5 6 6 7 7 7 7 7 6 5 5 5 5 4 4 4 4 4 3 2 2 2 4 5 5 5 5
11 9 7 7 6 8 12 9 7 3 2 4 4 3 9 19 18 17 22 25 20 17 18 17 15 16 16 14 10 6 4 1 1 3 5 6 4 2 -3 -8 -10 -8 -3 0 3 5 5 5 5 5 5 7 7 7 7 8 8 7 7 6 5 5 5 5 5 5 6 6 6 6 6 6 6 7 7 7 8 8 8 8 7 7 7 7 6 5 5 5 5 3 3 3 3 4 4 3 4
16 15 15 16 12 12 12 8 10 7 4 5 9 7 3 9 16 14 12 10 3 3 5 5 4 3 3 3 2 -1 -1 -0 1 3 3 2 -2 -5 -9 -9 -8 -3 1 3 6 5 5 4 4 4 4 6 6 6 6 7 6 6 6 5 6 5 5 5 5 5 5 5 5 6 6 6 6 6 6 7 7 8 8 8 7 7 7 7 7 5 5 5 5 4 3 3 4 4 5 3 3
20 21 16 19 18 16 11 8 11 8 8 7 9 12 -4 -18 -10 -3 -5 -3 -4 -4 -4 -4 -3 -5 -5 -6 -5 -5 -3 -2 -0 0 -0 -1 -4 -6 -7 -6 -4 1 4 5 5 4 4 4 3 3 3 4 4 5 5 6 5 4 5 5 5 5 5 5 5 5 5 5 5 4 3 4 4 4 5 6 6 6 6 6 6 5 5 6 6 6 5 5 6 5 4 4 4 4 7 6 3
15 15 7 11 11 13 12 10 14 10 9 8 9 14 4 -15 -21 -15 -12 -7 -4 -2 -2 -2 -2 -4 -4 -6 -5 -5 -4 -4 -4 -3 -2 -1 -2 -2 -3 -1 2 5 7 6 5 4 4 3 3 3 3 3 4 4 5 5 5 5 5 6 6 5 5 5 5 5 5 5 4 3 3 3 3 4 4 5 5 5 5 5 6 7 6 6 5 5 4 5 5 5 5 4 5 5 5 6 6
13 12 7 10 7 10 12 12 15 15 10 5 5 8 10 5 -4 -7 -6 -5 -6 -5 -5 -4 -4 -4 -4 -4 -3 -3 -2 -2 -1 2 3 4 3 3 3 5 6 7 8 6 4 4 4 4 5 5 5 5 4 4 4 5 4 5 5 5 6 5 4 4 4 4 4 4 3 3 3 3 3 4 4 4 4 3 5 5 4 5 6 4 4 4 3 4 4 4 4 4 6 6 6 8 7
12 14 12 12 10 9 8 9 11 14 13 8 8 7 8 9 6 4 4 4 2 1 1 1 -0 -2 -2 -2 -1 -0 1 2 4 6 7 8 7 8 8 8 7 6 5 2 2 4 6 7 8 7 7 7 6 6 5 5 4 4 4 4 4 3 3 2 2 3 2 2 2 3 4 3 2 4 4 5 4 4 8 8 6 5 3 1 1 1 2 3 4 4 3 3 4 6 10 12 9
3 9 13 12 12 10 8 10 9 10 11 13 15 13 11 10 12 12 12 11 9 8 8 8 6 5 4 4 6 7 8 8 9 10 10 10 10 9 8 7 4 3 2 2 5 8 9 8 8 7 6 6 5 5 4 4 4 3 3 3 3 3 3 2 3 2 2 3 3 4 3 1 2 5 5 5 3 3 6 5 5 4 1 1 0 -0 1 2 3 5 6 6 5 6 8 7 7
-4 -2 5 9 12 11 10 13 12 11 9 11 12 11 9 7 8 11 14 11 7 6 7 8 10 12 12 11 11 12 13 13 12 11 10 10 9 7 5 4 4 5 6 7 9 9 8 6 6 5 4 5 4 4 4 4 3 3 3 3 4 3 3 3 4 3 2 5 6 5 3 4 10 13 14 15 10 4 2 -0 2 6 5 4 4 4 2 1 1 3 5 7 6 5 5 5 5
-7 -8 -3 1 8 10 9 10 11 12 12 13 12 10 9 8 9 8 9 10 9 10 13 16 16 17 17 16 14 12 12 11 10 8 6 4 3 4 5 7 8 8 8 8 7 6 5 5 5 4 4 3 3 4 4 4 3 3 3 3 3 3 4 4 4 4 4 3 4 5 6 6 7 6 4 10 13 9 5 0 -0 5 8 5 3 7 10 10 6 3 4 6 8 6 4 7 8
-10 -9 -7 -9 -3 3 6 7 7 8 7 7 7 7 7 10 14 13 12 13 14 14 13 14 14 14 13 12 11 10 8 6 5 5 5 5 6 7 8 8 7 6 4 4 4 4 4 4 5 4 4 3 2 3 3 3 3 3 3 3 3 2 3 3 3 4 4 3 2 3 3 -2 -7 -9 -12 -6 3 7 11 9 3 -0 -3 -5 -5 0 6 11 12 10 7 4 7 9 8 8 6
-5 -8 -7 -10 -7 -6 -4 1 4 7 6 3 3 4 6 8 9 10 11 11 10 10 9 10 10 10 9 8 6 6 6 7 7 8 8 8 7 7 5 5 5 5 4 4 4 3 4 5 5 5 5 4 4 4 3 2 2 3 3 4 4 3 2 2 2 3 4 4 4 4 4 1 -1 -2 -4 -3 -3 -3 3 9 9 7 1 -4 -3 -2 -3 -1 3 10 14 8 3 4 7 8 3
10 4 1 -4 -3 -5 -10 -9 -4 3 7 8 7 6 5 7 8 8 8 8 8 8 8 9 8 7 7 7 6 7 8 9 8 8 7 6 5 4 4 4 5 7 7 7 7 6 5 4 5 6 6 6 6 6 5 4 4 3 4 4 4 5 5 4 3 2 2 2 3 4 4 4 4 5 4 4 1 -4 -5 -5 -3 1 3 1 2 3 3 1 -2 1 9 13 11 7 5 5 3
20 17 17 11 7 6 -1 -8 -9 -6 -2 3 7 9 8 6 8 8 5 3 3 2 2 3 4 3 3 3 4 4 4 5 6 6 7 7 8 9 11 11 10 10 10 11 12 12 11 10 8 8 9 10 12 12 12 11 10 8 7 7 6 6 6 6 6 5 4 4 4 5 5 4 5 5 4 4 5 3 1 -1 -2 -2 1 2 1 2 4 4 1 -1 -3 1 8 11 10 7 5
20 20 25 24 17 13 9 2 -4 -9 -10 -8 -5 3 9 7 2 1 -2 -2 -1 -1 1 2 2 1 1 2 1 1 3 6 6 7 8 9 12 14 16 17 16 15 14 13 13 15 15 16 15 13 12 11 13 15 17 19 20 19 18 17 15 13 11 10 9 7 7 6 6 5 5 4 4 5 6 5 5 5 4 4 4 4 4 5 5 7 8 8 6 4 -2 -5 -1 4 10 10 8
16 19 20 20 16 15 13 10 8 3 -1 -3 -5 -3 3 5 1 -4 -5 -3 -1 1 4 3 2 2 3 2 2 4 7 8 8 11 14 15 15 14 11 10 11 11 11 10 7 7 7 8 9 10 10 9 7 6 7 10 14 17 18 19 20 21 21 20 20 19 17 15 15 14 13 11 9 8 7 6 5 4 5 6 6 6 7 7 7 8 9 9 8 9 10 7 2 -2 -0 2 3
9 14 14 11 11 13 12 13 16 17 16 12 8 8 3 2 1 -5 -6 -4 -2 4 3 1 2 3 3 3 5 7 9 12 14 15 15 12 9 6 5 4 5 6 7 8 7 6 6 6 6 6 7 8 8 7 4 3 4 6 8 10 11 12 13 15 17 19 21 22 22 22 23 22 21 20 17 15 11 7 5 5 7 8 10 11 11 9 8 7 7 7 7 7 5 1 -4 -6 -1
8 9 10 7 8 11 11 12 14 16 18 12 9 10 1 -2 -1 -5 -5 -6 -1 7 3 1 4 3 4 5 8 11 13 14 12 9 6 4 4 4 5 5 5 6 6 6 7 7 8 8 9 8 8 9 9 10 10 8 6 5 5 6 7 8 8 7 7 8 9 11 12 13 15 16 17 18 21 22 23 22 19 13 8 4 2 3 5 8 11 15 17 13 8 7 8 8 3 -3 -2
11 11 10 9 9 11 11 11 14 15 17 14 12 10 0 -3 -1 -2 -3 -7 -1 9 10 9 8 8 11 11 13 14 11 7 3 3 4 4 5 5 5 5 5 5 5 4 5 5 6 7 8 9 10 10 9 10 10 11 11 9 7 6 6 6 8 9 9 8 8 7 7 7 8 10 11 11 13 15 17 20 24 26 23 16 7 3 3 4 5 7 10 13 16 16 13 11 12 12 8
12 11 11 13 12 14 14 14 16 17 19 21 22 20 14 11 7 4 2 3 7 10 13 15 13 13 14 13 12 9 5 3 4 5 6 5 5 4 4 4 4 4 4 5 5 5 6 6 7 8 9 10 11 11 10 11 12 13 12 10 8 6 6 6 7 8 9 9 9 8 8 9 10 11 12 13 13 13 15 19 25 28 24 18 12 9 7 3 -1 -1 4 10 14 11 8 15 19
7 6 8 12 11 12 13 14 13 12 13 14 17 18 19 22 21 17 12 13 16 12 11 11 10 11 9 7 5 3 3 3 5 5 5 4 3 4 4 4 4 4 5 6 6 6 6 6 6 7 7 8 10 10 11 11 10 10 11 11 10 9 8 8 7 7 7 8 8 9 9 9 8 9 9 11 13 13 13 12 14 20 24 25 20 14 12 12 11 7 3 4 13 17 7 1 5
3 2 3 5 4 5 5 7 7 8 8 7 9 10 9 11 14 16 14 13 13 9 7 5 4 4 3 3 3 3 3 2 3 3 4 5 4 5 5 5 5 5 5 5 5 5 5 5 4 4 5 6 7 8 8 9 10 9 8 8 9 9 10 9 9 8 7 7 6 7 7 7 8 7 8 8 9 10 12 12 11 12 15 20 22 20 13 11 13 13 11 4 1 7 9 6 4
5 3 3 3 4 4 3 4 6 8 9 7 7 9 8 5 5 7 9 9 5 2 2 2 3 3 3 3 2 3 2 2 3 3 4 5 4 4 3 4 4 3 3 3 3 3 3 4 3 3 3 3 4 5 5 6 6 6 6 6 7 7 7 7 7 6 6 6 5 5 5 5 6 5 5 6 6 7 8 10 11 11 12 14 19 23 20 14 10 9 12 11 2 -3 -1 6 12
6 5 4 4 5 6 5 5 5 4 6 6 5 8 7 4 3 3 4 4 3 3 2 4 5 3 4 3 2 3 3 4 5 4 4 3 3 3 3 3 3 2 2 2 2 2 2 2 2 2 2 3 3 3 3 4 4 3 3 3 4 4 4 4 4 4 4 4 4 4 4 4 4 4 4 4 4 5 6 7 8 9 10 11 13 17 23 23 17 10 7 9 11 8 3 1 2
4 5 4 3 3 4 4 4 3 1 2 3 2 5 4 2 2 2 2 2 2 3 2 3 4 3 4 4 3 4 4 5 5 4 2 2 3 3 3 3 2 2 2 2 2 2 2 2 2 2 2 2 2 2 2 3 3 3 3 2 2 2 2 2 3 3 3 3 3 3 3 3 3 3 4 3 3 2 3 4 6 7 8 9 9 10 14 20 24 23 14 8 8 12 12 7 1
4 5 4 4 3 2 3 3 2 0 1 1 0 3 4 4 4 2 1 1 1 1 1 1 1 1 2 2 3 3 3 3 3 2 2 3 4 3 4 3 3 3 2 3 2 1 2 2 2 2 2 2 1 1 1 2 3 3 4 3 3 3 2 2 1 2 2 3 3 3 3 3 3 3 4 4 4 2 1 2 3 5 6 7 8 9 9 11 16 22 24 18 10 9 13 12 9
3 4 4 4 3 2 3 3 2 1 1 1 1 2 3 3 5 4 2 2 2 1 1 3 3 3 3 3 4 4 3 3 2 3 3 3 4 3 3 3 3 4 4 4 4 3 3 3 3 3 3 3 2 2 2 3 3 3 4 3 4 4 4 4 3 2 2 3 3 3 3 3 3 2 3 4 5 4 2 2 1 2 3 4 5 8 10 10 10 13 20 23 18 11 11 14 14
2 2 3 3 2 3 4 2 3 3 2 2 2 3 3 3 3 3 2 3 3 3 3 4 5 5 6 6 5 4 4 3 3 3 3 3 3 3 3 4 4 4 5 5 5 5 4 4 3 3 3 3 3 3 3 4 4 4 5 4 4 4 4 4 5 4 4 5 5 5 4 4 3 3 2 3 4 4 4 3 2 2 2 3 3 5 6 9 11 11 12 18 23 18 10 10 13
4 3 3 3 4 5 5 4 4 3 2 3 2 2 4 5 4 3 2 3 4 3 3 3 4 4 5 5 5 5 5 4 3 3 3 4 4 4 4 4 4 4 4 4 5 5 4 4 2 3 3 4 4 3 3 4 4 4 4 5 5 5 5 4 4 4 4 5 7 7 7 6 6 5 4 3 3 3 4 4 3 3 2 2 2 3 4 6 8 11 11 12 18 23 18 10 8
5 6 6 7 7 7 6 5 4 3 2 2 1 1 3 4 5 4 4 6 6 3 1 1 2 3 3 4 5 5 5 6 6 4 5 5 5 5 5 5 5 5 5 5 5 5 4 3 2 3 3 3 4 3 4 3 3 4 4 4 4 4 4 4 5 4 3 4 4 4 5 6 7 7 7 6 5 4 3 4 3 3 3 3 2 2 2 3 4 7 11 12 12 18 24 19 10
6 7 7 8 8 8 9 8 6 4 3 3 2 2 2 3 4 4 4 5 5 3 2 3 3 3 2 3 3 3 3 5 7 7 6 6 5 6 6 6 6 5 5 5 5 5 4 4 3 3 3 4 5 4 4 3 3 3 4 4 4 4 4 3 4 4 4 5 4 4 3 4 4 5 6 6 6 6 5 5 5 5 3 3 4 3 2 2 3 4 7 11 11 12 18 25 22
6 6 6 7 7 8 10 8 6 5 6 6 5 4 4 4 4 4 4 3 4 4 4 5 5 5 5 4 4 4 5 5 5 5 5 5 5 5 5 6 6 5 6 6 6 6 6 5 4 4 5 5 5 4 4 3 4 4 3 4 3 3 3 3 4 4 5 5 5 5 4 4 4 3 4 4 5 5 5 6 7 7 6 5 4 3 3 2 2 3 4 6 10 11 11 17 26
5 5 5 6 6 7 8 8 7 6 7 7 7 7 6 6 7 7 7 6 7 7 7 7 7 7 6 6 6 6 5 5 4 4 5 6 6 7 7 8 7 7 7 8 9 9 8 7 6 6 7 7 7 6 5 5 4 3 3 4 4 4 4 5 5 5 5 5 5 5 5 5 4 4 3 3 4 3 3 5 7 8 8 7 6 4 4 3 2 3 3 4 5 9 11 11 15
4 4 4 5 5 5 4 6 7 6 7 6 6 7 6 6 8 8 8 9 8 8 9 9 9 9 9 9 8 7 7 7 7 8 7 7 7 7 8 8 8 7 7 8 8 8 8 8 7 7 7 7 7 6 6 5 5 5 5 5 5 5 5 5 5 6 5 5 5 5 5 5 4 5 4 4 3 3 3 3 4 6 7 8 8 7 5 4 4 3 3 4 4 5 8 11 10
4 4 4 4 6 5 4 5 7 7 7 6 6 6 4 3 4 6 8 9 8 7 7 8 9 9 10 10 10 9 9 9 9 9 10 9 8 7 6 5 5 5 5 4 4 4 4 4 4 5 5 5 5 5 5 5 5 5 5 5 5 5 6 6 6 5 5 6 6 6 6 5 5 5 4 4 4 3 3 3 4 5 6 7 7 8 8 6 5 5 4 3 4 5 4 7 10
6 6 6 6 6 7 6 5 7 7 7 6 6 6 4 2 2 4 7 8 8 8 7 7 7 6 7 7 7 9 8 8 8 8 7 7 7 6 6 5 4 4 4 4 4 4 4 4 4 4 5 5 5 6 5 5 5 5 4 3 3 4 5 5 5 5 5 6 6 6 6 5 5 5 4 5 4 4 4 4 5 5 5 6 6 7 7 7 6 5 6 5 3 5 6 6 6
7 7 9 8 7 9 9 7 7 7 8 9 9 10 8 5 3 2 5 7 6 7 6 6 5 4 5 5 6 7 7 7 6 6 6 6 7 7 7 7 7 7 6 6 6 6 6 7 7 7 7 7 7 7 6 6 6 5 5 4 4 4 4 4 4 4 4 5 5 5 5 5 5 4 4 5 4 5 5 5 6 5 5 6 6 7 6 8 8 7 6 6 6 4 4 7 7
8 9 10 9 8 9 8 9 10 8 9 9 8 12 11 7 5 1 3 4 4 5 5 6 7 6 7 8 8 8 8 8 8 7 8 8 8 8 9 8 8 7 7 8 8 9 9 9 9 9 8 7 7 7 6 7 7 7 7 6 6 5 5 4 4 4 4 5 5 5 5 5 5 5 5 6 6 6 6 5 5 5 6 6 6 6 7 7 8 8 8 7 7 7 5 5 7
7 7 8 8 8 9 8 9 10 8 10 9 4 10 12 7 5 2 2 4 4 6 7 7 8 8 9 9 9 9 9 9 10 10 10 10 9 9 8 7 7 9 11 11 11 10 9 10 10 10 10 11 11 10 10 10 9 9 8 8 7 7 6 6 5 5 5 5 6 6 6 6 6 6 7 7 7 7 6 6 6 7 7 6 6 6 7 8 7 7 8 8 8 8 9 9 7
5 4 4 6 6 7 7 7 8 6 8 7 4 8 12 9 6 4 5 7 7 8 9 10 10 9 9 9 9 9 9 9 9 9 9 9 10 10 10 10 11 12 11 11 11 11 11 11 11 11 11 11 11 11 11 10 10 10 9 9 8 8 7 7 7 7 7 7 7 7 7 7 7 7 7 8 8 8 7 7 7 8 7 6 7 6 6 7 8 8 7 8 8 7 7 8 8
6 5 5 7 6 7 8 7 8 8 7 8 6 7 11 10 8 6 6 8 10 10 8 9 11 11 10 9 9 10 9 9 8 8 8 8 9 9 10 11 12 11 11 10 10 10 10 10 10 9 9 8 8 8 7 7 8 8 8 8 8 9 9 8 9 9 9 9 8 8 8 8 8 8 8 8 9 8 9 9 9 8 8 8 7 7 7 7 7 8 8 8 8 8 9 7 7
8 8 8 9 8 8 9 7 8 8 8 9 9 9 11 10 8 7 8 10 11 11 11 10 10 10 11 10 9 9 9 8 8 8 8 8 8 8 8 8 8 8 9 8 8 7 7 6 6 6 5 5 6 6 6 6 7 7 7 8 8 9 9 9 10 10 10 10 10 10 9 9 9 10 10 10 10 10 10 10 10 9 8 8 8 7 7 8 8 8 8 7 8 8 8 9 8
9 10 10 10 10 9 8 8 8 9 9 10 10 10 10 11 11 11 11 11 11 11 13 15 12 8 9 9 7 7 6 6 7 7 8 8 8 8 8 7 6 4 4 4 5 6 6 7 8 8 8 8 7 7 7 6 7 7 7 8 8 9 9 9 9 9 10 10 10 11 11 12 12 11 11 11 11 12 11 11 10 10 9 8 9 9 8 8 9 9 8 7 7 8 7 6 7
11 12 12 12 11 11 10 10 10 11 12 12 10 10 9 10 13 14 12 10 9 8 7 9 11 8 5 4 5 6 7 6 6 6 6 6 6 6 6 5 5 6 6 6 6 6 8 8 8 9 10 10 11 11 10 10 9 9 9 9 10 10 11 12 12 12 11 12 12 12 12 12 12 12 13 13 13 13 12 11 10 10 10 9 9 9 10 10 9 9 9 7 6 7 7 6 4
13 13 13 13 13 13 12 13 14 13 13 13 12 11 11 11 12 12 11 9 7 6 4 2 4 6 7 8 9 8 7 7 6 6 6 5 6 7 7 7 8 8 8 8 9 9 9 10 9 9 9 8 9 10 11 12 12 12 12 12 12 12 12 12 14 14 14 14 13 13 13 13 13 13 13 12 12 12 12 12 12 11 11 11 11 10 10 10 10 10 10 9 8 7 7 7 5
13 14 14 14 14 13 12 13 14 12 11 11 10 10 10 11 10 6 6 8 7 5 4 3 4 6 9 11 10 9 9 10 9 7 6 6 6 7 7 8 8 9 10 11 12 11 9 8 8 9 10 10 10 10 11 11 11 12 11 12 13 13 14 13 14 14 14 14 13 13 13 13 13 12 12 12 12 13 13 12 12 12 11 11 11 11 11 11 11 11 11 10 8 8 8 7 7
14 15 14 13 13 12 11 11 10 9 8 7 7 8 8 8 8 7 6 6 5 5 5 6 7 8 7 5 5 8 9 10 11 10 10 9 7 7 8 9 9 9 10 10 11 12 12 12 11 10 10 10 10 10 11 11 12 13 13 13 13 14 15 16 16 16 16 15 15 15 15 14 14 15 14 13 12 12 12 13 12 12 12 12 11 11 11 11 11 12 12 12 10 8 9 8 8
13 12 11 10 10 9 9 8 7 8 8 6 6 7 6 5 5 5 5 5 5 6 7 7 5 5 7 6 5 5 4 5 9 11 12 13 13 12 11 11 12 11 10 9 9 9 10 11 11 10 9 9 9 9 9 10 9 10 10 10 10 10 10 12 13 15 16 16 17 18 17 16 15 15 15 15 16 15 13 13 12 11 11 11 11 11 11 11 12 12 12 11 11 10 9 10 10
10 9 8 8 7 7 8 7 7 7 8 7 6 7 6 5 5 3 3 5 6 6 6 7 5 2 3 6 7 7 7 8 9 8 9 11 13 13 11 10 9 8 8 8 8 8 8 7 7 8 8 8 9 9 9 9 9 8 8 7 8 8 9 10 11 12 13 14 16 16 16 17 19 23 25 22 19 15 13 13 13 13 13 12 12 12 13 13 13 13 14 12 11 11 11 11 12
9 9 7 8 8 7 6 6 6 7 7 6 4 4 6 5 6 6 6 6 8 9 8 7 8 7 7 10 11 11 10 8 7 7 6 7 7 8 9 9 9 8 7 7 6 6 6 7 7 7 7 7 7 8 8 8 8 9 10 10 10 10 10 11 12 13 14 14 15 15 14 16 16 16 18 19 18 18 19 18 15 12 11 11 13 13 12 13 12 12 12 12 12 11 12 13 13
7 5 5 7 7 6 6 7 8 8 9 10 6 3 5 6 5 5 7 7 7 10 10 8 10 12 11 9 9 7 6 5 6 6 6 6 6 6 7 8 9 9 9 8 8 8 7 7 7 7 7 6 5 5 5 6 6 6 7 8 10 11 12 13 13 14 16 17 18 16 14 14 9 2 1 10 16 15 10 6 6 9 12 15 17 17 15 14 14 14 13 13 15 14 14 15 15
6 5 7 8 6 7 8 8 10 11 10 12 11 6 4 6 5 4 9 13 9 7 9 8 8 9 8 7 7 8 7 7 7 7 7 7 7 7 6 6 6 7 8 8 8 8 7 7 7 7 7 6 5 5 4 4 4 4 5 7 10 13 15 16 18 19 22 23 20 17 14 13 14 10 2 1 2 -2 -4 1 11 19 25 26 21 19 21 21 19 19 19 18 19 18 18 18 17
7 8 9 9 8 9 9 6 8 10 7 9 15 12 6 5 8 8 11 13 8 5 7 8 6 6 7 8 8 9 9 8 8 8 7 7 6 6 5 4 4 4 4 5 5 6 6 7 7 7 7 7 7 6 5 5 5 6 8 11 13 16 18 20 22 24 26 26 19 16 14 10 13 18 15 9 7 8 12 14 14 16 17 13 6 6 16 20 19 18 18 18 18 17 17 17 18
7 6 7 8 8 9 8 4 6 5 2 6 13 10 5 8 12 9 5 7 10 9 8 8 7 7 6 7 7 8 8 8 8 7 6 6 6 6 6 5 5 4 3 3 4 4 5 5 5 6 6 6 6 6 8 9 12 15 16 19 23 25 24 24 24 23 24 23 16 14 18 16 14 17 15 14 13 11 11 9 8 13 15 9 4 7 15 15 10 9 11 13 15 16 16 18 18
Height
5809 5813 5815 5818 5821 5823 5825 5827 5830 5831 5833 5836 5838 5839 5840 5841 5842 5843 5843 5843 5844 5845 5847 5850 5851 5852 5854 5855 5856 5857 5858 5859 5860 5861 5862 5863 5863 5863 5863 5864 5865 5865 5866 5867 5867 5868 5868 5869 5869 5870 5870 5870 5870 5871 5871 5872 5872 5872 5872 5873 5873 5873 5874 5874 5874 5874 5875 5875 5876 5876 5876 5876 5876 5877 5877 5877 5878 5878 5878 5879 5879 5879 5879 5879 5880 5880 5881 5881 5881 5881 5881 5881 5881 5882 5882 5883 5883
5807 5810 5813 5816 5819 5821 5823 5825 5828 5830 5831 5833 5835 5837 5838 5839 5840 5841 5841 5841 5842 5844 5846 5849 5850 5851 5853 5854 5855 5855 5856 5857 5858 5859 5860 5860 5860 5861 5861 5862 5863 5863 5864 5864 5865 5865 5866 5866 5867 5867 5868 5868 5868 5868 5868 5869 5869 5869 5869 5870 5870 5870 5871 5871 5871 5871 5872 5872 5872 5873 5873 5873 5873 5874 5874 5875 5875 5876 5876 5876 5876 5876 5876 5876 5876 5877 5877 5878 5879 5879 5879 5878 5878 5878 5879 5880 5880
5805 5808 5811 5814 5817 5819 5821 5824 5827 5828 5830 5832 5833 5834 5835 5836 5837 5838 5839 5840 5842 5844 5846 5847 5849 5850 5851 5852 5853 5853 5854 5855 5856 5857 5858 5858 5859 5859 5859 5859 5860 5860 5861 5862 5862 5863 5863 5863 5864 5864 5865 5865 5865 5865 5865 5866 5866 5866 5866 5866 5867 5867 5867 5868 5868 5868 5868 5869 5869 5870 5870 5870 5871 5871 5871 5872 5872 5873 5873 5873 5873 5873 5873 5873 5873 5874 5874 5875 5875 5875 5876 5876 5875 5875 5876 5876 5877
5803 5806 5809 5812 5815 5817 5819 5822 5824 5826 5828 5829 5830 5832 5833 5835 5836 5836 5838 5840 5842 5843 5844 5845 5846 5847 5848 5849 5851 5852 5852 5853 5854 5855 5856 5857 5857 5857 5857 5857 5858 5858 5859 5860 5860 5861 5861 5861 5861 5861 5862 5862 5862 5863 5863 5863 5863 5863 5863 5863 5863 5864 5864 5865 5865 5865 5865 5865 5866 5866 5867 5867 5867 5868 5868 5869 5869 5870 5870 5870 5870 5870 5870 5870 5870 5870 5871 5871 5872 5872 5872 5873 5872 5872 5873 5873 5873
5801 5804 5807 5810 5813 5815 5818 5820 5823 5825 5826 5826 5828 5831 5832 5834 5835 5835 5837 5839 5841 5841 5842 5842 5844 5845 5846 5848 5849 5850 5850 5851 5852 5853 5854 5855 5855 5855 5855 5855 5856 5856 5857 5857 5858 5858 5858 5858 5859 5859 5859 5859 5859 5859 5860 5860 5860 5860 5860 5860 5860 5861 5861 5862 5862 5862 5862 5862 5862 5863 5863 5864 5864 5865 5865 5865 5866 5866 5866 5867 5867 5867 5867 5867 5867 5867 5867 5868 5868 5869 5869 5869 5869 5869 5869 5869 5870
5799 5802 5805 5808 5811 5814 5817 5818 5821 5823 5823 5824 5827 5830 5831 5832 5833 5834 5835 5837 5839 5839 5840 5841 5842 5844 5845 5846 5847 5848 5848 5849 5850 5851 5852 5852 5853 5853 5853 5853 5854 5854 5854 5854 5854 5854 5855 5855 5855 5855 5856 5856 5856 5856 5857 5857 5857 5857 5858 5858 5858 5858 5858 5859 5859 5859 5859 5859 5859 5860 5860 5861 5861 5862 5862 5862 5862 5863 5863 5863 5864 5864 5864 5864 5864 5864 5864 5864 5864 5865 5866 5866 5866 5866 5866 5866 5866
5797 5800 5803 5806 5810 5812 5815 5817 5819 5820 5821 5823 5826 5828 5829 5830 5831 5832 5833 5835 5836 5837 5838 5839 5841 5842 5843 5845 5845 5846 5846 5847 5848 5849 5849 5850 5851 5851 5851 5851 5850 5850 5850 5850 5850 5850 5851 5851 5851 5851 5852 5852 5852 5852 5853 5853 5853 5854 5854 5854 5855 5855 5855 5855 5855 5855 5856 5856 5856 5856 5856 5857 5857 5858 5858 5859 5859 5859 5860 5860 5860 5860 5860 5860 5860 5861 5861 5861 5861 5861 5862 5862 5863 5862 5862 5862 5863
5796 5800 5803 5805 5808 5810 5813 5815 5817 5818 5820 5822 5823 5825 5827 5828 5829 5830 5832 5833 5834 5835 5837 5838 5840 5840 5842 5843 5843 5843 5844 5845 5845 5846 5847 5847 5847 5847 5847 5847 5847 5847 5847 5847 5847 5847 5847 5847 5847 5848 5848 5848 5848 5849 5849 5849 5849 5849 5850 5850 5850 5851 5851 5851 5852 5852 5852 5852 5852 5852 5852 5852 5853 5853 5854 5855 5855 5856 5856 5856 5856 5856 5856 5856 5857 5857 5857 5858 5858 5858 5858 5859 5859 5859 5858 5858 5859
5796 5799 5802 5804 5806 5808 5811 5813 5815 5817 5818 5819 5821 5823 5824 5826 5827 5828 5830 5832 5833 5834 5835 5836 5838 5838 5839 5840 5840 5841 5842 5842 5842 5843 5843 5843 5844 5844 5843 5843 5843 5843 5844 5844 5844 5844 5844 5844 5844 5844 5844 5844 5845 5845 5845 5845 5845 5845 5845 5846 5846 5846 5846 5847 5847 5848 5848 5848 5848 5848 5848 5848 5848 5849 5849 5850 5851 5851 5852 5852 5852 5852 5853 5853 5853 5853 5854 5854 5854 5854 5855 5856 5856 5856 5855 5855 5855
5796 5799 5801 5803 5805 5807 5809 5811 5813 5815 5816 5818 5819 5821 5822 5823 5825 5827 5828 5830 5831 5832 5834 5834 5835 5836 5837 5837 5838 5839 5839 5840 5840 5839 5839 5839 5839 5839 5839 5840 5840 5840 5840 5840 5840 5840 5840 5840 5840 5840 5840 5840 5840 5840 5841 5841 5841 5842 5842 5842 5842 5842 5842 5842 5842 5843 5843 5843 5843 5843 5844 5844 5844 5844 5844 5845 5846 5847 5847 5847 5848 5848 5848 5848 5849 5849 5850 5850 5850 5851 5851 5852 5853 5852 5853 5852 5851
5796 5798 5800 5802 5803 5805 5807 5809 5811 5813 5815 5816 5818 5819 5821 5822 5823 5825 5826 5827 5829 5830 5831 5832 5832 5833 5834 5834 5835 5835 5836 5836 5836 5836 5836 5836 5835 5835 5836 5836 5836 5836 5836 5837 5837 5837 5837 5837 5837 5837 5837 5837 5837 5837 5837 5837 5837 5838 5838 5838 5838 5838 5838 5838 5838 5838 5838 5839 5839 5839 5840 5840 5840 5840 5840 5840 5841 5842 5842 5843 5843 5843 5843 5844 5844 5845 5845 5846 5846 5847 5847 5848 5848 5849 5849 5849 5849
5796 5798 5799 5801 5802 5804 5806 5808 5810 5812 5813 5815 5816 5818 5820 5821 5821 5822 5823 5825 5826 5827 5828 5829 5829 5830 5830 5831 5832 5832 5832 5832 5833 5833 5833 5834 5833 5833 5833 5833 5833 5833 5833 5833 5834 5834 5834 5834 5834 5834 5834 5834 5834 5834 5833 5833 5833 5833 5833 5834 5834 5834 5834 5834 5834 5834 5834 5834 5834 5835 5835 5835 5835 5836 5836 5836 5836 5836 5837 5837 5838 5838 5838 5839 5839 5839 5840 5841 5842 5842 5843 5843 5844 5844 5845 5846 5845
5796 5797 5799 5800 5801 5803 5805 5807 5808 5810 5812 5813 5814 5816 5818 5819 5819 5820 5821 5822 5823 5824 5825 5826 5827 5827 5827 5828 5829 5829 5829 5829 5830 5831 5831 5831 5831 5831 5831 5831 5831 5831 5831 5830 5831 5831 5831 5831 5831 5830 5830 5830 5830 5830 5830 5829 5829 5828 5828 5829 5829 5830 5830 5830 5830 5830 5830 5830 5830 5830 5830 5830 5831 5832 5832 5831 5832 5832 5832 5832 5832 5833 5833 5834 5834 5834 5835 5835 5836 5837 5838 5838 5839 5839 5840 5841 5841
5795 5797 5798 5800 5800 5802 5804 5806 5807 5809 5810 5811 5813 5814 5815 5816 5817 5818 5819 5820 5821 5821 5822 5823 5824 5824 5824 5825 5825 5826 5826 5827 5827 5828 5828 5829 5829 5829 5829 5829 5829 5828 5828 5828 5828 5828 5828 5828 5828 5827 5827 5827 5826 5826 5826 5826 5825 5825 5824 5825 5825 5825 5825 5826 5826 5825 5826 5826 5826 5826 5826 5827 5827 5828 5827 5826 5826 5826 5826 5826 5827 5827 5827 5828 5829 5829 5829 5830 5830 5831 5832 5833 5834 5834 5836 5838 5837
5794 5796 5798 5799 5800 5802 5803 5805 5806 5807 5808 5810 5811 5812 5813 5814 5815 5816 5817 5817 5819 5820 5820 5820 5821 5821 5822 5822 5822 5823 5823 5824 5824 5825 5825 5825 5826 5826 5826 5826 5825 5825 5825 5825 5825 5825 5825 5824 5824 5824 5824 5823 5823 5822 5822 5822 5821 5821 5820 5820 5820 5820 5820 5820 5821 5821 5821 5822 5822 5822 5822 5823 5823 5824 5823 5822 5821 5821 5821 5821 5822 5822 5822 5823 5823 5824 5824 5824 5825 5825 5826 5827 5828 5829 5831 5833 5833
5793 5795 5797 5798 5800 5801 5802 5803 5804 5805 5806 5808 5809 5810 5811 5812 5813 5814 5815 5816 5816 5817 5818 5818 5819 5819 5820 5820 5820 5821 5821 5821 5821 5821 5822 5822 5822 5822 5822 5822 5822 5822 5822 5822 5821 5821 5821 5821 5820 5820 5820 5819 5819 5818 5818 5817 5817 5816 5816 5816 5816 5816 5815 5815 5816 5816 5816 5817 5817 5817 5817 5818 5818 5819 5819 5819 5818 5817 5817 5816 5817 5817 5817 5818 5818 5819 5819 5819 5820 5820 5821 5821 5822 5824 5825 5827 5827
5791 5793 5795 5797 5799 5800 5801 5801 5801 5803 5804 5806 5808 5809 5810 5810 5811 5812 5813 5814 5814 5815 5815 5816 5817 5817 5817 5817 5817 5818 5818 5818 5818 5818 5819 5819 5819 5818 5818 5818 5818 5818 5818 5818 5818 5817 5817 5816 5816 5816 5815 5815 5814 5814 5813 5813 5812 5812 5811 5811 5811 5811 5811 5811 5811 5811 5811 5811 5812 5812 5812 5812 5813 5813 5814 5814 5814 5813 5813 5813 5813 5813 5813 5813 5813 5813 5813 5814 5814 5814 5815 5816 5817 5818 5819 5820 5821
5789 5791 5793 5795 5797 5798 5798 5799 5800 5801 5802 5804 5806 5808 5809 5809 5810 5811 5812 5812 5812 5813 5813 5813 5814 5814 5814 5814 5815 5815 5815 5815 5815 5815 5816 5815 5815 5815 5815 5815 5815 5815 5814 5814 5814 5813 5813 5812 5812 5811 5811 5811 5810 5810 5810 5809 5808 5808 5807 5807 5807 5807 5806 5806 5806 5806 5806 5806 5806 5806 5806 5807 5807 5807 5808 5809 5808 5808 5808 5808 5808 5808 5809 5809 5808 5808 5808 5809 5809 5809 5810 5811 5812 5812 5813 5814 5815
5788 5790 5791 5793 5795 5795 5796 5797 5798 5799 5801 5803 5805 5806 5807 5808 5809 5810 5810 5810 5811 5811 5810 5810 5811 5811 5810 5811 5811 5811 5811 5811 5811 5812 5812 5812 5813 5813 5812 5812 5812 5811 5811 5811 5810 5810 5809 5809 5808 5808 5807 5807 5807 5806 5806 5805 5805 5804 5803 5803 5803 5803 5802 5801 5801 5801 5801 5801 5801 5801 5801 5801 5801 5801 5802 5802 5802 5802 5802 5802 5803 5803 5803 5803 5803 5803 5803 5803 5804 5805 5805 5806 5806 5807 5807 5807 5809
5787 5789 5790 5792 5793 5794 5794 5795 5797 5798 5800 5801 5803 5805 5806 5806 5807 5808 5808 5808 5809 5808 5807 5807 5808 5807 5807 5807 5808 5808 5808 5808 5808 5809 5809 5809 5809 5809 5809 5809 5808 5808 5808 5807 5807 5806 5806 5805 5805 5804 5804 5804 5803 5803 5802 5802 5801 5801 5800 5799 5799 5798 5798 5797 5796 5796 5796 5795 5796 5795 5795 5795 5795 5795 5795 5795 5796 5796 5797 5797 5797 5797 5797 5797 5797 5797 5797 5798 5799 5800 5800 5800 5801 5802 5801 5802 5802
5785 5787 5788 5789 5791 5792 5793 5794 5796 5797 5799 5800 5801 5803 5804 5804 5805 5806 5805 5806 5806 5804 5804 5804 5804 5804 5804 5804 5805 5805 5806 5806 5806 5805 5805 5805 5805 5805 5805 5805 5805 5804 5804 5804 5803 5803 5802 5802 5801 5801 5800 5800 5800 5799 5799 5798 5797 5797 5796 5796 5795 5794 5793 5793 5793 5792 5792 5792 5792 5791 5790 5790 5789 5789 5788 5789 5790 5790 5791 5791 5791 5792 5791 5791 5791 5791 5792 5792 5793 5794 5795 5795 5795 5796 5797 5797 5797
5784 5785 5786 5787 5788 5789 5790 5792 5793 5795 5796 5797 5798 5800 5801 5801 5802 5802 5803 5804 5803 5801 5801 5802 5801 5801 5801 5801 5802 5803 5803 5803 5803 5802 5802 5802 5802 5802 5802 5802 5801 5800 5800 5799 5799 5799 5798 5798 5797 5796 5796 5795 5795 5795 5794 5794 5793 5792 5792 5792 5791 5790 5790 5789 5788 5788 5788 5788 5788 5788 5787 5786 5785 5784 5783 5783 5783 5783 5784 5784 5784 5785 5785 5785 5785 5785 5786 5786 5787 5788 5789 5789 5789 5790 5791 5791 5792
5783 5784 5785 5786 5787 5787 5788 5790 5791 5792 5794 5795 5795 5797 5798 5798 5798 5799 5800 5800 5799 5798 5799 5798 5798 5798 5798 5798 5799 5800 5800 5800 5800 5799 5799 5799 5799 5799 5798 5798 5797 5796 5796 5795 5794 5794 5793 5793 5793 5792 5791 5791 5790 5790 5789 5789 5788 5788 5787 5787 5786 5786 5785 5785 5784 5784 5784 5783 5783 5783 5782 5782 5781 5780 5779 5778 5778 5777 5777 5777 5778 5778 5778 5779 5779 5780 5780 5780 5781 5782 5782 5783 5783 5784 5785 5784 5785
5782 5783 5784 5784 5785 5786 5787 5788 5789 5790 5791 5792 5792 5794 5795 5794 5794 5795 5797 5797 5797 5797 5796 5794 5794 5794 5795 5795 5796 5796 5797 5797 5797 5796 5796 5796 5795 5795 5794 5794 5793 5792 5791 5791 5790 5789 5789 5788 5788 5787 5787 5786 5786 5785 5784 5784 5783 5783 5782 5782 5782 5781 5781 5780 5780 5779 5779 5779 5778 5777 5777 5777 5777 5776 5775 5775 5774 5773 5772 5771 5772 5772 5772 5773 5773 5774 5774 5774 5775 5776 5776 5776 5777 5778 5779 5778 5779
5781 5782 5782 5783 5784 5784 5785 5786 5787 5787 5788 5789 5789 5791 5791 5791 5791 5793 5795 5795 5795 5794 5792 5791 5791 5792 5793 5793 5793 5793 5793 5793 5793 5792 5792 5791 5791 5790 5790 5789 5788 5788 5787 5787 5786 5786 5785 5784 5783 5783 5782 5781 5780 5780 5779 5779 5779 5778 5778 5777 5777 5776 5776 5775 5775 5775 5774 5774 5773 5772 5772 5772 5771 5771 5770 5770 5769 5769 5767 5767 5767 5765 5765 5765 5766 5767 5768 5768 5769 5769 5769 5770 5771 5772 5773 5772 5773
5780 5780 5781 5782 5782 5783 5783 5784 5784 5785 5785 5786 5786 5788 5788 5788 5789 5792 5794 5793 5792 5790 5789 5789 5789 5790 5790 5790 5791 5790 5790 5789 5788 5788 5787 5787 5786 5786 5786 5785 5784 5784 5783 5782 5782 5781 5781 5780 5779 5778 5777 5777 5776 5775 5775 5774 5774 5774 5773 5773 5772 5771 5771 5770 5770 5770 5769 5769 5768 5767 5767 5766 5766 5765 5764 5764 5764 5763 5763 5763 5762 5760 5759 5759 5759 5760 5760 5762 5762 5762 5763 5764 5764 5765 5767 5767 5767
5780 5780 5780 5780 5781 5781 5782 5782 5782 5782 5783 5783 5784 5785 5786 5786 5788 5791 5791 5789 5787 5787 5786 5786 5787 5788 5788 5787 5787 5787 5786 5785 5785 5784 5783 5783 5783 5783 5782 5781 5781 5780 5779 5778 5777 5776 5776 5775 5774 5773 5772 5772 5771 5770 5769 5769 5769 5768 5768 5767 5767 5766 5765 5765 5765 5764 5764 5763 5763 5762 5761 5760 5759 5759 5758 5758 5758 5758 5758 5757 5756 5755 5755 5754 5754 5753 5753 5754 5755 5755 5756 5758 5758 5758 5760 5760 5761
5780 5780 5780 5780 5780 5781 5781 5781 5780 5780 5780 5780 5781 5783 5784 5785 5787 5788 5786 5784 5784 5784 5783 5784 5785 5785 5785 5784 5784 5783 5783 5782 5781 5780 5780 5779 5779 5779 5778 5777 5776 5775 5774 5773 5772 5771 5770 5770 5769 5768 5767 5766 5765 5765 5764 5764 5763 5763 5762 5761 5761 5760 5760 5759 5759 5758 5758 5758 5758 5757 5756 5755 5754 5754 5753 5752 5752 5752 5752 5751 5751 5750 5749 5749 5748 5748 5747 5747 5747 5748 5749 5751 5751 5752 5753 5753 5754
5780 5779 5779 5779 5779 5779 5779 5779 5778 5777 5777 5777 5778 5781 5784 5784 5784 5783 5781 5781 5781 5781 5781 5781 5781 5781 5782 5781 5780 5780 5779 5778 5778 5777 5776 5776 5775 5774 5773 5772 5771 5770 5769 5768 5767 5766 5765 5764 5763 5762 5761 5760 5759 5759 5758 5758 5757 5757 5756 5755 5755 5754 5754 5753 5753 5752 5752 5752 5752 5751 5750 5749 5749 5748 5747 5746 5746 5746 5745 5745 5745 5744 5743 5743 5742 5742 5741 5741 5741 5741 5742 5743 5744 5745 5746 5746 5747
5778 5778 5778 5778 5777 5778 5777 5776 5775 5774 5774 5775 5776 5779 5783 5782 5780 5778 5777 5778 5778 5778 5778 5778 5778 5778 5778 5778 5777 5776 5774 5773 5773 5772 5772 5771 5770 5769 5768 5766 5765 5764 5763 5762 5761 5760 5759 5758 5758 5757 5756 5755 5754 5753 5753 5752 5752 5751 5751 5750 5749 5749 5748 5748 5747 5747 5747 5746 5746 5745 5745 5744 5743 5743 5742 5741 5741 5740 5739 5739 5739 5738 5737 5736 5736 5736 5735 5735 5734 5734 5734 5735 5736 5737 5739 5739 5740
5775 5775 5776 5776 5775 5776 5775 5773 5773 5773 5772 5773 5772 5774 5780 5780 5776 5775 5775 5775 5775 5775 5776 5776 5775 5774 5773 5772 5771 5770 5769 5767 5767 5766 5765 5764 5763 5762 5761 5761 5760 5759 5758 5757 5756 5756 5754 5753 5752 5752 5751 5749 5748 5748 5747 5747 5746 5746 5745 5744 5744 5743 5743 5742 5741 5741 5741 5740 5740 5740 5739 5738 5738 5737 5736 5735 5735 5734 5734 5733 5734 5733 5731 5731 5730 5729 5729 5728 5728 5727 5727 5727 5728 5729 5731 5732 5733
5773 5772 5773 5773 5772 5773 5773 5772 5772 5771 5770 5769 5767 5767 5774 5778 5774 5771 5771 5771 5771 5771 5772 5772 5771 5770 5768 5766 5765 5763 5762 5761 5760 5760 5759 5758 5757 5756 5755 5755 5754 5753 5752 5751 5751 5750 5749 5748 5747 5746 5745 5743 5742 5742 5741 5740 5740 5740 5739 5739 5738 5737 5737 5736 5736 5735 5735 5734 5734 5733 5733 5732 5732 5731 5730 5729 5729 5728 5728 5727 5728 5727 5726 5725 5724 5723 5722 5722 5722 5721 5720 5720 5720 5721 5723 5724 5725
5770 5768 5769 5770 5769 5771 5772 5772 5770 5768 5765 5764 5762 5761 5768 5775 5773 5769 5768 5768 5767 5767 5768 5767 5765 5764 5763 5761 5759 5757 5755 5754 5755 5754 5753 5752 5751 5750 5749 5749 5748 5747 5747 5746 5745 5744 5743 5742 5740 5739 5738 5737 5736 5735 5734 5734 5733 5733 5732 5732 5731 5731 5730 5730 5729 5728 5728 5728 5727 5726 5726 5726 5725 5724 5724 5723 5722 5722 5721 5721 5721 5721 5720 5719 5718 5717 5716 5716 5715 5715 5714 5713 5712 5713 5714 5715 5717
5765 5765 5765 5767 5767 5768 5769 5769 5766 5763 5760 5758 5758 5757 5762 5770 5771 5768 5766 5765 5764 5762 5762 5762 5761 5760 5758 5756 5754 5752 5749 5747 5748 5748 5746 5746 5746 5745 5744 5743 5743 5742 5740 5739 5738 5737 5736 5734 5733 5732 5731 5730 5729 5728 5727 5726 5726 5725 5725 5724 5724 5724 5723 5723 5722 5722 5721 5720 5720 5719 5719 5718 5718 5717 5717 5716 5715 5715 5714 5714 5714 5714 5713 5712 5712 5711 5710 5709 5709 5708 5708 5707 5706 5705 5706 5707 5708
5762 5761 5762 5762 5763 5764 5766 5764 5761 5757 5754 5753 5754 5754 5757 5762 5764 5765 5763 5760 5759 5758 5757 5757 5757 5755 5753 5751 5749 5747 5745 5743 5742 5742 5741 5740 5740 5739 5738 5737 5736 5735 5734 5733 5731 5730 5729 5727 5726 5725 5724 5723 5722 5721 5720 5719 5718 5718 5718 5717 5716 5716 5715 5715 5715 5714 5714 5713 5712 5712 5711 5711 5710 5709 5709 5709 5708 5708 5707 5707 5707 5706 5706 5706 5705 5704 5704 5703 5702 5702 5701 5701 5700 5699 5699 5699 5699
5758 5757 5756 5757 5758 5760 5762 5758 5754 5752 5749 5749 5751 5750 5750 5754 5757 5758 5757 5754 5753 5753 5752 5751 5751 5749 5747 5745 5743 5743 5741 5738 5737 5736 5736 5735 5734 5732 5731 5730 5729 5728 5727 5726 5725 5723 5722 5721 5719 5718 5717 5716 5715 5713 5712 5711 5711 5710 5710 5710 5709 5709 5708 5708 5707 5707 5706 5706 5705 5704 5704 5703 5702 5701 5701 5700 5700 5700 5700 5699 5699 5699 5698 5698 5698 5697 5697 5696 5696 5695 5695 5694 5693 5693 5693 5692 5692
5753 5751 5751 5751 5752 5755 5756 5751 5747 5747 5744 5745 5748 5745 5743 5747 5750 5751 5751 5749 5747 5746 5746 5745 5744 5742 5741 5739 5738 5736 5734 5732 5732 5731 5730 5729 5727 5726 5725 5724 5723 5722 5721 5719 5718 5717 5716 5715 5713 5712 5711 5709 5708 5706 5705 5704 5704 5703 5703 5702 5702 5701 5701 5700 5700 5699 5698 5698 5697 5696 5696 5695 5694 5693 5693 5692 5692 5692 5691 5691 5691 5691 5690 5690 5690 5689 5689 5689 5688 5688 5688 5687 5686 5686 5686 5686 5685
5747 5746 5746 5746 5747 5748 5747 5744 5742 5741 5739 5739 5742 5739 5737 5740 5743 5744 5744 5743 5741 5739 5738 5737 5736 5734 5733 5731 5730 5729 5728 5726 5725 5724 5722 5721 5719 5718 5717 5716 5715 5714 5713 5712 5711 5710 5709 5707 5706 5705 5704 5702 5701 5700 5699 5697 5696 5696 5695 5695 5694 5693 5693 5692 5692 5691 5691 5690 5689 5688 5687 5686 5685 5685 5684 5684 5683 5683 5683 5683 5683 5683 5682 5682 5682 5681 5681 5680 5680 5680 5680 5679 5679 5679 5679 5679 5677
5742 5741 5740 5741 5742 5740 5738 5739 5738 5735 5733 5732 5734 5733 5732 5734 5735 5736 5737 5737 5735 5732 5730 5728 5728 5726 5724 5723 5722 5721 5720 5719 5717 5716 5714 5713 5712 5710 5709 5707 5706 5705 5704 5703 5702 5701 5700 5698 5697 5696 5695 5693 5692 5691 5690 5689 5688 5688 5687 5687 5686 5686 5685 5684 5683 5683 5682 5681 5680 5680 5679 5678 5677 5676 5675 5675 5674 5674 5674 5674 5674 5674 5674 5674 5673 5673 5673 5672 5672 5672 5671 5671 5671 5671 5671 5671 5670
5737 5736 5736 5736 5736 5733 5731 5734 5733 5730 5727 5726 5726 5726 5726 5726 5727 5729 5730 5729 5728 5725 5723 5720 5719 5717 5715 5715 5714 5713 5711 5710 5709 5707 5706 5705 5703 5702 5700 5698 5697 5695 5694 5693 5692 5691 5690 5689 5688 5687 5685 5683 5682 5681 5681 5680 5679 5679 5678 5677 5677 5677 5676 5676 5674 5674 5673 5672 5671 5671 5670 5669 5669 5668 5667 5666 5666 5665 5665 5665 5664 5664 5664 5664 5664 5664 5664 5664 5663 5663 5663 5662 5663 5663 5663 5663 5662
5732 5732 5731 5731 5729 5728 5726 5726 5727 5725 5723 5722 5721 5719 5719 5718 5720 5722 5721 5721 5720 5717 5715 5713 5711 5709 5708 5707 5706 5704 5702 5701 5700 5698 5697 5696 5694 5692 5691 5689 5688 5686 5685 5684 5683 5682 5680 5679 5678 5677 5675 5674 5672 5671 5670 5670 5669 5668 5668 5667 5667 5666 5666 5666 5665 5665 5664 5663 5662 5661 5661 5660 5660 5659 5658 5657 5656 5656 5656 5655 5655 5655 5655 5655 5655 5654 5655 5655 5655 5654 5654 5653 5654 5655 5655 5655 5654
5728 5727 5726 5725 5723 5723 5722 5720 5720 5719 5718 5718 5717 5713 5711 5710 5711 5713 5713 5712 5711 5709 5708 5706 5704 5702 5700 5698 5697 5695 5694 5692 5691 5690 5688 5687 5685 5683 5681 5680 5679 5678 5677 5675 5674 5673 5671 5670 5669 5667 5666 5665 5663 5662 5661 5660 5659 5658 5657 5657 5656 5656 5656 5655 5655 5655 5654 5654 5652 5652 5651 5651 5650 5649 5649 5648 5647 5647 5646 5646 5646 5646 5645 5645 5645 5645 5645 5645 5645 5645 5645 5644 5644 5645 5646 5646 5646
5723 5723 5721 5719 5718 5717 5716 5715 5714 5713 5711 5712 5711 5708 5705 5704 5704 5704 5703 5703 5702 5700 5699 5697 5695 5693 5691 5689 5688 5687 5685 5684 5683 5682 5679 5678 5676 5674 5672 5671 5671 5670 5668 5667 5665 5664 5662 5661 5659 5658 5657 5656 5654 5653 5652 5650 5649 5648 5647 5646 5646 5645 5645 5644 5644 5644 5644 5643 5642 5642 5641 5640 5640 5639 5639 5638 5638 5637 5637 5636 5637 5636 5636 5635 5635 5635 5635 5636 5636 5636 5636 5635 5635 5635 5636 5637 5637
5718 5718 5716 5714 5713 5711 5711 5710 5708 5707 5706 5705 5705 5703 5700 5698 5697 5696 5694 5693 5693 5691 5689 5688 5687 5685 5682 5680 5679 5678 5676 5675 5674 5673 5671 5669 5667 5665 5664 5663 5662 5661 5659 5657 5656 5655 5653 5652 5650 5649 5647 5646 5645 5643 5642 5641 5639 5638 5637 5636 5635 5634 5634 5633 5633 5633 5632 5632 5631 5631 5630 5630 5629 5629 5628 5628 5627 5627 5627 5627 5627 5627 5626 5626 5626 5626 5626 5626 5626 5626 5627 5627 5626 5626 5627 5627 5627
5712 5712 5710 5709 5708 5706 5705 5704 5702 5701 5700 5699 5699 5698 5696 5693 5690 5689 5686 5685 5684 5681 5679 5679 5677 5676 5674 5672 5670 5669 5667 5666 5665 5664 5662 5660 5658 5657 5656 5655 5653 5651 5649 5648 5647 5645 5644 5642 5641 5639 5638 5636 5635 5633 5632 5631 5629 5627 5626 5625 5624 5623 5622 5622 5622 5621 5620 5620 5619 5619 5619 5618 5618 5618 5617 5617 5617 5617 5617 5616 5616 5616 5616 5616 5616 5616 5616 5616 5616 5616 5617 5617 5617 5617 5617 5618 5618
5706 5705 5704 5703 5702 5700 5699 5697 5695 5694 5693 5693 5693 5691 5690 5688 5684 5683 5682 5679 5676 5672 5670 5670 5668 5666 5664 5663 5661 5660 5659 5657 5656 5654 5653 5651 5650 5648 5647 5646 5645 5643 5641 5639 5637 5636 5634 5633 5631 5630 5628 5626 5625 5623 5622 5620 5619 5617 5616 5614 5613 5612 5611 5610 5610 5609 5609 5608 5608 5607 5607 5606 5606 5606 5606 5606 5606 5606 5606 5606 5606 5605 5605 5605 5605 5606 5606 5606 5606 5606 5607 5608 5608 5608 5608 5608 5609
5700 5699 5697 5696 5695 5694 5693 5691 5689 5687 5686 5687 5687 5684 5683 5682 5678 5677 5677 5674 5669 5664 5661 5660 5660 5659 5656 5654 5653 5651 5649 5648 5647 5645 5643 5641 5640 5638 5637 5636 5635 5634 5632 5631 5629 5627 5625 5623 5621 5619 5617 5616 5614 5612 5611 5610 5608 5607 5605 5604 5602 5601 5600 5599 5599 5598 5597 5597 5596 5596 5595 5595 5594 5594 5594 5594 5594 5594 5594 5595 5595 5595 5595 5595 5595 5595 5596 5596 5596 5597 5597 5597 5598 5599 5599 5599 5599
5693 5692 5691 5689 5688 5687 5686 5685 5684 5682 5680 5680 5680 5678 5676 5675 5673 5673 5672 5668 5664 5659 5653 5649 5650 5651 5649 5647 5645 5643 5641 5640 5638 5636 5635 5632 5630 5628 5626 5624 5623 5622 5621 5620 5619 5617 5615 5612 5610 5608 5607 5605 5603 5601 5600 5598 5597 5595 5594 5593 5591 5590 5589 5588 5588 5587 5586 5585 5585 5584 5583 5583 5582 5582 5582 5582 5582 5582 5582 5583 5583 5584 5584 5584 5584 5585 5585 5586 5586 5587 5587 5587 5588 5589 5590 5590 5590
5688 5686 5685 5683 5682 5680 5679 5678 5677 5677 5675 5674 5674 5672 5669 5669 5668 5667 5666 5662 5658 5654 5648 5643 5641 5640 5639 5637 5636 5636 5634 5632 5630 5627 5625 5623 5620 5618 5617 5615 5613 5611 5609 5608 5606 5604 5603 5601 5599 5597 5595 5593 5591 5590 5588 5587 5585 5584 5582 5581 5579 5578 5577 5577 5576 5576 5575 5574 5573 5572 5572 5571 5571 5571 5570 5570 5570 5570 5570 5571 5571 5572 5572 5572 5573 5573 5574 5575 5576 5576 5576 5577 5577 5578 5579 5580 5581
5682 5680 5679 5678 5676 5674 5673 5672 5670 5670 5669 5667 5668 5666 5664 5664 5662 5660 5658 5655 5651 5648 5644 5640 5636 5632 5630 5627 5626 5625 5624 5622 5621 5619 5617 5615 5612 5609 5607 5605 5603 5601 5599 5596 5594 5592 5590 5589 5587 5585 5584 5582 5580 5578 5577 5575 5574 5572 5571 5570 5568 5567 5566 5565 5565 5564 5563 5563 5562 5561 5561 5560 5559 5559 5559 5559 5559 5559 5559 5559 5559 5560 5560 5560 5561 5562 5563 5563 5564 5565 5566 5566 5567 5568 5569 5570 5570
5676 5675 5674 5672 5671 5668 5668 5666 5662 5663 5663 5661 5661 5661 5660 5657 5654 5652 5650 5646 5644 5643 5639 5635 5630 5626 5623 5620 5617 5614 5612 5611 5610 5608 5607 5605 5603 5601 5598 5596 5593 5591 5588 5585 5583 5580 5578 5577 5575 5573 5572 5570 5569 5567 5566 5564 5563 5561 5560 5558 5557 5556 5555 5553 5553 5552 5551 5551 5551 5550 5549 5549 5548 5548 5548 5548 5547 5548 5548 5548 5548 5548 5548 5548 5549 5550 5551 5552 5552 5553 5554 5555 5556 5557 5558 5559 5559
5671 5670 5669 5667 5666 5663 5662 5660 5657 5655 5656 5655 5653 5654 5654 5651 5647 5645 5641 5637 5638 5637 5633 5629 5623 5618 5615 5613 5610 5607 5603 5601 5599 5597 5595 5593 5591 5590 5588 5586 5583 5581 5578 5576 5573 5570 5568 5566 5564 5562 5560 5558 5557 5556 5555 5553 5552 5550 5549 5547 5546 5545 5544 5543 5541 5540 5539 5539 5538 5538 5537 5537 5537 5537 5537 5536 5536 5536 5536 5537 5537 5537 5536 5537 5537 5538 5539 5540 5540 5541 5542 5543 5544 5545 5546 5547 5548
5666 5665 5663 5661 5660 5658 5656 5655 5652 5649 5649 5650 5648 5645 5645 5644 5640 5637 5633 5631 5630 5629 5626 5621 5616 5611 5607 5605 5602 5599 5596 5592 5589 5587 5584 5581 5579 5578 5576 5575 5573 5571 5569 5567 5564 5562 5559 5557 5554 5552 5550 5548 5546 5544 5543 5542 5541 5539 5538 5537 5535 5534 5533 5532 5531 5530 5528 5528 5527 5527 5526 5525 5525 5525 5525 5525 5524 5524 5525 5525 5525 5525 5525 5525 5526 5527 5527 5527 5528 5529 5530 5531 5532 5534 5535 5535 5536
5661 5659 5657 5655 5654 5652 5650 5648 5647 5643 5640 5644 5644 5639 5637 5637 5633 5628 5624 5623 5621 5619 5617 5612 5607 5604 5600 5596 5594 5591 5588 5584 5580 5578 5575 5572 5570 5567 5564 5563 5561 5560 5558 5556 5554 5552 5549 5547 5545 5542 5540 5538 5535 5533 5531 5530 5529 5528 5526 5525 5524 5523 5522 5521 5520 5519 5518 5517 5516 5516 5515 5515 5515 5515 5514 5514 5513 5513 5513 5514 5514 5514 5514 5515 5515 5515 5516 5516 5517 5517 5518 5519 5521 5522 5523 5524 5525
5656 5653 5652 5650 5648 5646 5644 5641 5640 5636 5632 5634 5637 5634 5630 5629 5628 5620 5615 5616 5614 5610 5608 5603 5599 5597 5592 5589 5586 5583 5579 5575 5572 5569 5566 5563 5560 5557 5554 5551 5549 5546 5545 5543 5541 5539 5537 5535 5533 5531 5529 5527 5525 5522 5520 5518 5517 5515 5514 5513 5512 5511 5510 5509 5509 5508 5507 5506 5505 5505 5505 5505 5505 5505 5505 5504 5503 5503 5503 5502 5503 5503 5504 5504 5504 5504 5505 5505 5506 5506 5507 5508 5509 5511 5512 5512 5514
5651 5647 5646 5645 5642 5640 5638 5635 5633 5630 5626 5625 5626 5628 5624 5620 5620 5614 5606 5607 5606 5601 5598 5595 5591 5588 5585 5581 5577 5574 5570 5566 5562 5559 5556 5553 5549 5546 5543 5539 5536 5533 5531 5530 5528 5526 5524 5522 5520 5518 5516 5514 5512 5511 5509 5507 5505 5503 5502 5501 5499 5498 5497 5497 5497 5496 5496 5495 5494 5494 5494 5493 5494 5494 5494 5494 5493 5492 5492 5492 5492 5493 5493 5494 5494 5494 5494 5495 5496 5496 5497 5498 5499 5500 5501 5502 5503
5645 5642 5640 5638 5636 5633 5631 5629 5628 5624 5621 5618 5614 5617 5619 5614 5610 5605 5598 5598 5597 5591 5588 5586 5582 5579 5575 5571 5567 5564 5561 5557 5553 5549 5545 5542 5538 5535 5532 5528 5525 5521 5518 5516 5514 5512 5510 5508 5506 5504 5502 5501 5499 5497 5496 5494 5492 5491 5489 5488 5487 5486 5485 5484 5484 5484 5484 5484 5483 5483 5483 5483 5483 5483 5483 5482 5482 5482 5482 5482 5482 5482 5483 5484 5484 5484 5484 5485 5486 5487 5487 5488 5488 5489 5490 5491 5492
5638 5636 5634 5632 5629 5627 5623 5622 5622 5618 5615 5612 5605 5605 5611 5610 5604 5596 5589 5587 5586 5581 5579 5576 5573 5569 5565 5562 5558 5554 5551 5547 5544 5540 5535 5532 5528 5525 5522 5518 5514 5511 5507 5504 5501 5499 5497 5494 5492 5490 5488 5486 5485 5483 5482 5480 5479 5477 5476 5475 5475 5474 5473 5473 5472 5473 5473 5473 5473 5473 5473 5472 5472 5473 5473 5472 5472 5472 5473 5472 5472 5473 5473 5474 5474 5474 5475 5476 5477 5477 5478 5478 5479 5480 5481 5482 5483